ETHS

Details ICAO ETHS
Name FASSBERG
Region Germany - Military
Timezone Europe/Berlin (UTC+2.0)
Plans Departing 2
Arriving 3
Stats Elevation 245 ft / 75 m (AMSL)
Location 52.917486° 10.188099°
Runways 3
Magnetic Variation 2.899° E
Sunrise 2018-05-21 03:14:12 UTC / 2018-05-21 05:14:12 Local
Sunset 2018-05-21 19:20:19 UTC / 2018-05-21 21:20:19 Local
Advertisement - Login to hide

Runways

ID Width Length Bearing (true) Bearing (mag) Surface Threshold Offset Overrun Length
06 148 ft / 45 m 1,419 ft / 433 m 64.26° 61.36° Grass 0 ft / 0 m 0 ft / 0 m
09 95 ft / 29 m 7,981 ft / 2,433 m 90.92° 88.02° Asphalt 6,365 ft / 1,940 m 932 ft / 284 m
09L 164 ft / 50 m 3,334 ft / 1,016 m 88.32° 85.42° Grass 0 ft / 0 m 0 ft / 0 m
24 148 ft / 45 m 1,419 ft / 433 m 244.26° 241.36° Grass 0 ft / 0 m 0 ft / 0 m
27 95 ft / 29 m 7,981 ft / 2,433 m 270.95° 268.05° Asphalt 0 ft / 0 m 981 ft / 299 m
27R 164 ft / 50 m 3,334 ft / 1,016 m 268.33° 265.43° Grass 0 ft / 0 m 0 ft / 0 m

Map

Weather


0- 5 10 15 20 25 30 35+ Temperature / ° C

Clouds and Precipitation
Forecast for 2018-05-21 18:00 UTC. Updated 18 minutes ago

Ground ~20,000 ft ~40,000 ft Winds

METAR

ETHS 211720Z 12011KT 9999 FEW050 SCT240 22/05 Q1016 BLU+

TAF

Not found

Frequencies

Tower 122.10 MHz TWR
Approach 122.42 MHz RADAR
Approach 131.32 MHz HANNOVER DIR
Approach 123.30 MHz RADAR
Warning: Do not use this data for real-world aviation or navigation. No guarantee of current accuracy is given.